Regional Weather Roundup
Issued by NWS Sterling, VA

Home | Current Version | Previous Version | Text Only | Print | Product List | Glossary On
Versions: 1 2 3 4 5 6 7 8 9 10 11 12 13 14 15 16 17 18 19 20 21 22 23 24 25 26 27 28 29 30 31 32 33 34 35 36 37 38 39 40 41 42 43 44 45 46 47 48 49 50
000
ASUS41 KLWX 030110
RWRLWX

REGIONAL WEATHER ROUNDUP
NATIONAL WEATHER SERVICE BALTIMORE MD/WASHINGTON DC
900 PM EDT TUE JUN 02 2015

Note: "FAIR" indicates few or no clouds below 12,000 feet
with no significant weather and/or obstructions to visibility.
 TC=TEMPERATURE CELSIUS

 * =Non NWS site. Station does not report precipitation (e.g. rain,
    snow, etc.), thunder, or fog.

DCZ001-MDZ009-015-VAZ040>042-051-053>054-030200-
WASHINGTON METRO

CITY           SKY/WX    TMP DP  RH WIND       PRES   REMARKS
WASHINGTON NAT CLOUDY    62  56  80 NE12      30.11S
DULLES         CLOUDY    59  55  87 N9        30.11R
ANDREWS AFB    CLOUDY    57  57  99 NE7       30.09S
FT BELVOIR     CLOUDY    59  55  88 VRB5      30.10R
QUANTICO       CLOUDY    59  55  87 N9        30.10S
COLLEGE PARK*  CLOUDY    59  57  94 NE6       30.11S
LEESBURG*      CLOUDY    59  59 100 N7        30.13R
MANASSAS*      CLOUDY    61  57  88 NE6       30.10S
GAITHERSBURG*  CLOUDY    57  54  88 NE3       30.16R

$$

MDZ006>007-011-014-030200-
BALTIMORE METRO

CITY           SKY/WX    TMP DP  RH WIND       PRES   REMARKS
BWI AIRPORT    LGT RAIN  58  55  90 NE10      30.12R
MD SCIENCE CTR   N/A     59  55  87 MISG      30.13R
MARTIN STATE   DRIZZLE   59  57  94 N3        30.14R
ANNAPOLIS      LGT RAIN  59  56  89 NE7       30.11S
FORT MEADE*    CLOUDY    55  54  94 NE5       30.14R

$$

MDZ012-015-019>023-030200-
MARYLAND EASTERN SHORE

CITY           SKY/WX    TMP DP  RH WIND       PRES   REMARKS
OCEAN CITY     LGT RAIN  59  57  93 NE16      30.07R
SALISBURY      CLOUDY    56  55  97 NE13      30.07S
BAY BRIDGE AP* RAIN     N/A N/A N/A NE5       30.12R
CAMBRIDGE*     CLOUDY    59  55  88 NE9       30.08R
EASTON*        LGT RAIN  59  59 100 NE8       30.13S

$$

MDZ017>025-030200-
SOUTHERN MARYLAND

CITY           SKY/WX    TMP DP  RH WIND       PRES   REMARKS
PATUXENT RIVER CLOUDY    60  57  89 NE13      30.08R
ST INIGOES       N/A     60  58  92 VRB7      30.08R
LEONARDTOWN*   CLOUDY    59  55  88 NE5       30.09S

$$

MDZ003>005-030200-
NORTH CENTRAL MARYLAND

CITY           SKY/WX    TMP DP  RH WIND       PRES   REMARKS
FREDERICK*     CLOUDY    57  57 100 N5        30.15  FOG
HAGERSTOWN APT CLOUDY    60  54  80 NE7       30.13S
WESTMINSTER*   CLOUDY    55  54  94 NE6       30.13S

$$

MDZ501>502-030200-
WESTERN MARYLAND

CITY           SKY/WX    TMP DP  RH WIND       PRES   REMARKS
OAKLAND*       FOG       52 N/A N/A E9        30.13S VSB 1/4
CUMBERLAND*    CLOUDY    61  57  88 NE5       30.17R

$$

VAZ025>031-030200-
SHENANDOAH VALLEY

CITY           SKY/WX    TMP DP  RH WIND       PRES   REMARKS
WINCHESTER*    LGT RAIN  59  59 100 CALM      30.12R
FRONT ROYAL*   CLOUDY    57  55  94 NE6       30.11S
LURAY*         CLOUDY    61  61 100 N8        30.11S
NEW MARKET*    CLOUDY    59  56  89 NE9       30.10S
STAUNTON*      CLOUDY    62  58  88 NE6       30.13R
WAYNESBORO*    CLOUDY    57  57  99 CALM      30.11R

$$

WVZ021-048>050-054>055-030200-
EASTERN WEST VIRGINIA PANHANDLE

CITY           SKY/WX    TMP DP  RH WIND       PRES   REMARKS
MARTINSBURG    CLOUDY    60  55  83 NE6       30.13S
PETERSBURG*    CLOUDY    62  56  82 CALM      30.13R

$$

VAZ036>039-050-030200-
CENTRAL FOOTHILLS

CITY           SKY/WX    TMP DP  RH WIND       PRES   REMARKS
CHARLOTTESVILL CLOUDY    61  56  83 NE9       30.10R
CULPEPER*      CLOUDY    59  56  89 CALM      30.12R
ORANGE*        CLOUDY    61  57  88 N6        30.11S
GORDONSVILLE*  CLOUDY    61  55  82 NE8       30.09S
WARRENTON*     CLOUDY    61  59  94 N5        30.11R

$$

VAZ055>057-030200-
NORTH AND CENTRAL PIEDMONT

CITY           SKY/WX    TMP DP  RH WIND       PRES   REMARKS
FREDERICKSBRG* CLOUDY    62  62 100 N6        30.08S
STAFFORD*      CLOUDY    59  56  88 N5        30.13R

$$

NCZ024-NYZ072-PAZ021-071-VAZ022-071-030200-
OTHER REGIONAL OBSERVATIONS

CITY           SKY/WX    TMP DP  RH WIND       PRES   REMARKS
NEW YORK CITY  LGT RAIN  53  51  93 VRB6      30.18S
PHILADELPHIA   LGT RAIN  57  53  86 NE6       30.15R
PITTSBURGH     MOCLDY    60  53  77 E5        30.11S
ROANOKE        LGT RAIN  63  62  97 N10       30.07R FOG
RICHMOND       CLOUDY    62  59  90 N13G21    30.06R
RALEIGH        LGT RAIN  72  66  81 S6        29.99R

$$

ANZ530>537-030200-
MARINE OBSERVATIONS

STATION/POSITION TIME  TEMP    WIND        PRES
                       AIR SEA DIR/SP/G
                 (UTC) (F)     (DEG/KT/KT) (MB)
THOMAS PT LIGHT  0100   58 72   50/ 13/ 15 1019.9S
BALT KEY BRIDGE  0000   58      10/ 10/ 12 1019.3R
COVE POINT       0000   59      50/ 13/ 18 1019.0R
LEWISETTA        0000   64 74              1017.6R
SOLOMONS ISLAND  0000      72                N/A
PINEY POINT      0000           40/  8/ 10   N/A

$$




USA.gov is the U.S. government's official web portal to all federal, state and local government web resources and services.